GLO2048 SBGL-SBCT

Flight info

Callsign GLO2048
Flight time 1h 14m
Altitude 34000
Route NAXOP UZ45 RAXIT
Aircraft B738/M-SDE2E3FGHIRWXY/LB1

Departure

Time 2026-05-04 02:18
Airport Rio Galeão – Tom Jobim International Airport (SBGL)

Arrival

Time 2026-05-04 03:33
Airport Curitiba-Afonso Pena International Airport (SBCT)
Time Latitude Longitude Altitude Speed Heading
2026-05-04 01:44 -22.81633 -43.24516 37 ft 0 kts 342°
2026-05-04 02:06 -22.81634 -43.24515 37 ft 1 kts 342°
2026-05-04 02:07 -22.81648 -43.24511 37 ft 2 kts 342°
2026-05-04 02:07 -22.81663 -43.24506 37 ft 2 kts 342°
2026-05-04 02:07 -22.81677 -43.24501 37 ft 2 kts 342°
2026-05-04 02:07 -22.81692 -43.24496 37 ft 2 kts 342°
2026-05-04 02:08 -22.81700 -43.24493 37 ft 1 kts 329°
2026-05-04 02:08 -22.81708 -43.24480 37 ft 2 kts 276°
2026-05-04 02:08 -22.81705 -43.24465 37 ft 1 kts 228°
2026-05-04 02:08 -22.81700 -43.24460 37 ft 1 kts 209°
2026-05-04 02:09 -22.81696 -43.24458 37 ft 0 kts 215°
2026-05-04 02:10 -22.81702 -43.24462 37 ft 5 kts 215°
2026-05-04 02:11 -22.81759 -43.24521 37 ft 13 kts 253°
2026-05-04 02:11 -22.81718 -43.24594 37 ft 11 kts 310°
2026-05-04 02:11 -22.81671 -43.24663 37 ft 11 kts 304°
2026-05-04 02:11 -22.81627 -43.24734 37 ft 13 kts 304°
2026-05-04 02:12 -22.81579 -43.24808 38 ft 11 kts 303°
2026-05-04 02:12 -22.81526 -43.24873 39 ft 11 kts 304°
2026-05-04 02:12 -22.81469 -43.24974 38 ft 17 kts 284°
2026-05-04 02:12 -22.81414 -43.25080 37 ft 16 kts 306°
2026-05-04 02:13 -22.81343 -43.25166 36 ft 14 kts 308°
2026-05-04 02:13 -22.81282 -43.25258 33 ft 15 kts 306°
2026-05-04 02:13 -22.81200 -43.25343 30 ft 16 kts 330°
2026-05-04 02:13 -22.81095 -43.25383 29 ft 15 kts 352°
2026-05-04 02:14 -22.80995 -43.25380 29 ft 12 kts 353°
2026-05-04 02:14 -22.80938 -43.25448 28 ft 13 kts 296°
2026-05-04 02:14 -22.80899 -43.25539 27 ft 12 kts 295°
2026-05-04 02:14 -22.80859 -43.25622 27 ft 12 kts 298°
2026-05-04 02:15 -22.80778 -43.25678 25 ft 15 kts 12°
2026-05-04 02:15 -22.80681 -43.25613 24 ft 16 kts 34°
2026-05-04 02:15 -22.80596 -43.25548 24 ft 14 kts 34°
2026-05-04 02:15 -22.80506 -43.25549 24 ft 13 kts 329°
2026-05-04 02:16 -22.80432 -43.25599 24 ft 11 kts 333°
2026-05-04 02:16 -22.80358 -43.25596 24 ft 10 kts 34°
2026-05-04 02:16 -22.80298 -43.25549 24 ft 10 kts 36°
2026-05-04 02:16 -22.80240 -43.25502 24 ft 9 kts 27°
2026-05-04 02:17 -22.80184 -43.25490 24 ft 7 kts 72°
2026-05-04 02:17 -22.80178 -43.25467 24 ft 1 kts 74°
2026-05-04 02:17 -22.80153 -43.25374 24 ft 47 kts 75°
2026-05-04 02:17 -22.79977 -43.24704 24 ft 134 kts 75°
2026-05-04 02:18 -22.79662 -43.23486 193 ft 192 kts 74°
2026-05-04 02:18 -22.79333 -43.22052 1066 ft 205 kts 77°
2026-05-04 02:18 -22.79002 -43.20533 1852 ft 212 kts 77°
2026-05-04 02:18 -22.78632 -43.18936 2539 ft 230 kts 77°
2026-05-04 02:19 -22.78252 -43.17245 3402 ft 237 kts 78°
2026-05-04 02:19 -22.77876 -43.15506 4330 ft 244 kts 78°
2026-05-04 02:19 -22.77495 -43.13715 5266 ft 248 kts 78°
2026-05-04 02:19 -22.77101 -43.11872 6132 ft 254 kts 77°
2026-05-04 02:20 -22.76702 -43.10009 7016 ft 259 kts 77°
2026-05-04 02:20 -22.76298 -43.08127 7861 ft 263 kts 76°
2026-05-04 02:20 -22.75917 -43.06166 8706 ft 268 kts 81°
2026-05-04 02:20 -22.75956 -43.04162 9491 ft 275 kts 103°
2026-05-04 02:21 -22.76819 -43.02295 10260 ft 282 kts 129°
2026-05-04 02:21 -22.78290 -43.00858 10820 ft 295 kts 150°
2026-05-04 02:21 -22.80295 -43.00169 11328 ft 308 kts 179°
2026-05-04 02:21 -22.82431 -43.00552 11812 ft 319 kts 204°
2026-05-04 02:22 -22.84317 -43.01869 12319 ft 329 kts 226°
2026-05-04 02:22 -22.85751 -43.03769 13005 ft 333 kts 237°
2026-05-04 02:22 -22.87015 -43.05896 13775 ft 336 kts 240°
2026-05-04 02:22 -22.88223 -43.08058 14634 ft 336 kts 240°
2026-05-04 02:23 -22.89435 -43.10207 15479 ft 335 kts 240°
2026-05-04 02:23 -22.90661 -43.12331 16254 ft 336 kts 239°
2026-05-04 02:23 -22.91913 -43.14461 17063 ft 335 kts 240°
2026-05-04 02:23 -22.93164 -43.16573 17807 ft 335 kts 240°
2026-05-04 02:24 -22.94443 -43.18722 18510 ft 338 kts 239°
2026-05-04 02:24 -22.95715 -43.20861 19180 ft 340 kts 239°
2026-05-04 02:24 -22.97005 -43.23031 19839 ft 342 kts 239°
2026-05-04 02:24 -22.98294 -43.25199 20537 ft 343 kts 239°
2026-05-04 02:25 -22.99578 -43.27359 21170 ft 345 kts 239°
2026-05-04 02:25 -23.00878 -43.29549 21824 ft 346 kts 239°
2026-05-04 02:25 -23.02184 -43.31750 22435 ft 347 kts 239°
2026-05-04 02:25 -23.03483 -43.33941 23030 ft 348 kts 239°
2026-05-04 02:26 -23.04799 -43.36163 23529 ft 352 kts 239°
2026-05-04 02:26 -23.06131 -43.38413 24060 ft 354 kts 240°
2026-05-04 02:26 -23.07451 -43.40641 24582 ft 356 kts 240°
2026-05-04 02:26 -23.08803 -43.42928 25126 ft 357 kts 240°
2026-05-04 02:27 -23.10149 -43.45203 25636 ft 359 kts 241°
2026-05-04 02:27 -23.11499 -43.47487 26129 ft 361 kts 241°
2026-05-04 02:27 -23.12854 -43.49780 26598 ft 363 kts 241°
2026-05-04 02:27 -23.14235 -43.52121 27022 ft 366 kts 242°
2026-05-04 02:28 -23.15620 -43.54467 27496 ft 368 kts 242°
2026-05-04 02:28 -23.16867 -43.56576 27919 ft 368 kts 242°
2026-05-04 02:28 -23.18261 -43.58939 28317 ft 371 kts 242°
2026-05-04 02:28 -23.19655 -43.61303 28755 ft 372 kts 243°
2026-05-04 02:29 -23.21050 -43.63673 29102 ft 376 kts 243°
2026-05-04 02:29 -23.22460 -43.66067 29514 ft 378 kts 243°
2026-05-04 02:29 -23.23888 -43.68494 29916 ft 380 kts 243°
2026-05-04 02:29 -23.25312 -43.70914 30308 ft 383 kts 243°
2026-05-04 02:30 -23.26752 -43.73362 30706 ft 385 kts 243°
2026-05-04 02:30 -23.28184 -43.75799 31102 ft 387 kts 243°
2026-05-04 02:30 -23.29649 -43.78292 31479 ft 389 kts 243°
2026-05-04 02:30 -23.31112 -43.80781 31818 ft 392 kts 243°
2026-05-04 02:31 -23.32589 -43.83298 32135 ft 395 kts 243°
2026-05-04 02:31 -23.34064 -43.85811 32602 ft 394 kts 243°
2026-05-04 02:31 -23.35531 -43.88303 33226 ft 389 kts 243°
2026-05-04 02:31 -23.36972 -43.90754 33875 ft 384 kts 243°
2026-05-04 02:32 -23.38417 -43.93213 34429 ft 381 kts 244°
2026-05-04 02:32 -23.39831 -43.95626 34929 ft 379 kts 243°
2026-05-04 02:32 -23.41250 -43.98052 35389 ft 377 kts 244°
2026-05-04 02:32 -23.42656 -44.00458 35836 ft 375 kts 244°
2026-05-04 02:33 -23.44063 -44.02865 36310 ft 373 kts 244°
2026-05-04 02:33 -23.45461 -44.05259 36717 ft 371 kts 243°
2026-05-04 02:33 -23.46850 -44.07638 37074 ft 371 kts 243°
2026-05-04 02:33 -23.48242 -44.10024 37441 ft 370 kts 243°
2026-05-04 02:34 -23.49605 -44.12386 37833 ft 367 kts 245°
2026-05-04 02:34 -23.50815 -44.14798 38172 ft 362 kts 249°
2026-05-04 02:34 -23.52534 -44.19923 38204 ft 360 kts 257°
2026-05-04 02:35 -23.53752 -44.25167 38203 ft 356 kts 259°
2026-05-04 02:35 -23.54921 -44.30409 38204 ft 357 kts 259°
2026-05-04 02:36 -23.56113 -44.35682 38204 ft 356 kts 259°
2026-05-04 02:36 -23.57303 -44.40908 38204 ft 357 kts 259°
2026-05-04 02:37 -23.58505 -44.46168 38202 ft 356 kts 258°
2026-05-04 02:37 -23.59703 -44.51443 38202 ft 357 kts 259°
2026-05-04 02:38 -23.60890 -44.56679 38202 ft 355 kts 258°
2026-05-04 02:38 -23.62082 -44.61935 38200 ft 357 kts 259°
2026-05-04 02:39 -23.63265 -44.67152 38196 ft 357 kts 259°
2026-05-04 02:39 -23.64455 -44.72418 38190 ft 357 kts 259°
2026-05-04 02:40 -23.65639 -44.77674 38189 ft 357 kts 259°
2026-05-04 02:40 -23.66823 -44.82917 38187 ft 358 kts 259°
2026-05-04 02:41 -23.68007 -44.88177 38188 ft 357 kts 259°
2026-05-04 02:41 -23.69192 -44.93457 38188 ft 357 kts 259°
2026-05-04 02:42 -23.70369 -44.98703 38185 ft 357 kts 259°
2026-05-04 02:42 -23.71540 -45.03947 38187 ft 356 kts 259°
2026-05-04 02:43 -23.72717 -45.09218 38190 ft 357 kts 259°
2026-05-04 02:43 -23.73887 -45.14453 38188 ft 355 kts 259°
2026-05-04 02:44 -23.75059 -45.19713 38181 ft 355 kts 259°
2026-05-04 02:44 -23.76225 -45.24958 38175 ft 355 kts 259°
2026-05-04 02:45 -23.77378 -45.30178 38185 ft 355 kts 259°
2026-05-04 02:45 -23.78527 -45.35405 38191 ft 355 kts 259°
2026-05-04 02:46 -23.79674 -45.40615 38194 ft 354 kts 259°
2026-05-04 02:46 -23.80818 -45.45829 38201 ft 355 kts 259°
2026-05-04 02:47 -23.81968 -45.51064 38198 ft 354 kts 259°
2026-05-04 02:47 -23.83118 -45.56311 38197 ft 354 kts 259°
2026-05-04 02:48 -23.84259 -45.61528 38186 ft 354 kts 259°
2026-05-04 02:48 -23.85401 -45.66761 38189 ft 354 kts 260°
2026-05-04 02:49 -23.86534 -45.71942 38183 ft 354 kts 259°
2026-05-04 02:49 -23.87672 -45.77161 38177 ft 354 kts 259°
2026-05-04 02:50 -23.88815 -45.82390 38178 ft 354 kts 259°
2026-05-04 02:50 -23.89948 -45.87591 38178 ft 353 kts 260°
2026-05-04 02:51 -23.91088 -45.92840 38179 ft 354 kts 259°
2026-05-04 02:51 -23.92212 -45.98018 38175 ft 352 kts 259°
2026-05-04 02:52 -23.93350 -46.03275 38176 ft 354 kts 260°
2026-05-04 02:52 -23.94481 -46.08515 38182 ft 355 kts 260°
2026-05-04 02:53 -23.95608 -46.13740 38183 ft 355 kts 260°
2026-05-04 02:53 -23.96745 -46.19014 38184 ft 355 kts 260°
2026-05-04 02:54 -23.97909 -46.24295 38184 ft 356 kts 258°
2026-05-04 02:54 -23.99645 -46.29377 38181 ft 361 kts 250°
2026-05-04 02:55 -24.03104 -46.36695 38183 ft 362 kts 248°
2026-05-04 02:56 -24.05385 -46.41470 38182 ft 362 kts 248°
2026-05-04 02:56 -24.07687 -46.46365 38184 ft 361 kts 248°
2026-05-04 02:57 -24.09969 -46.51245 38184 ft 361 kts 249°
2026-05-04 02:57 -24.12260 -46.56164 38190 ft 361 kts 248°
2026-05-04 02:58 -24.14522 -46.61023 38191 ft 361 kts 248°
2026-05-04 02:58 -24.16811 -46.65949 38194 ft 361 kts 248°
2026-05-04 02:59 -24.19084 -46.70842 38192 ft 362 kts 248°
2026-05-04 02:59 -24.21358 -46.75748 38192 ft 360 kts 249°
2026-05-04 03:00 -24.23632 -46.80658 38189 ft 362 kts 248°
2026-05-04 03:00 -24.25892 -46.85538 38188 ft 362 kts 248°
2026-05-04 03:01 -24.28171 -46.90463 38188 ft 362 kts 248°
2026-05-04 03:01 -24.30442 -46.95378 38189 ft 362 kts 248°
2026-05-04 03:02 -24.32722 -47.00322 38195 ft 361 kts 248°
2026-05-04 03:02 -24.34996 -47.05257 38204 ft 361 kts 248°
2026-05-04 03:03 -24.37272 -47.10196 38206 ft 360 kts 248°
2026-05-04 03:03 -24.39530 -47.15105 38205 ft 361 kts 248°
2026-05-04 03:04 -24.41775 -47.19992 38206 ft 361 kts 248°
2026-05-04 03:04 -24.44019 -47.24880 38207 ft 360 kts 248°
2026-05-04 03:05 -24.46271 -47.29791 38204 ft 361 kts 248°
2026-05-04 03:05 -24.48533 -47.34731 38205 ft 360 kts 248°
2026-05-04 03:06 -24.50779 -47.39638 38199 ft 361 kts 248°
2026-05-04 03:06 -24.53019 -47.44543 38200 ft 360 kts 248°
2026-05-04 03:07 -24.55283 -47.49499 38197 ft 361 kts 248°
2026-05-04 03:07 -24.57532 -47.54429 38192 ft 362 kts 248°
2026-05-04 03:08 -24.59786 -47.59375 38189 ft 362 kts 248°
2026-05-04 03:08 -24.62037 -47.64323 38187 ft 362 kts 248°
2026-05-04 03:09 -24.64300 -47.69302 38185 ft 361 kts 248°
2026-05-04 03:09 -24.66545 -47.74250 38188 ft 362 kts 248°
2026-05-04 03:10 -24.68789 -47.79197 38189 ft 362 kts 248°
2026-05-04 03:10 -24.71028 -47.84139 38189 ft 362 kts 248°
2026-05-04 03:11 -24.73264 -47.89075 38110 ft 359 kts 248°
2026-05-04 03:11 -24.74372 -47.91519 37531 ft 355 kts 248°
2026-05-04 03:11 -24.75475 -47.93961 36522 ft 359 kts 248°
2026-05-04 03:11 -24.76561 -47.96368 35395 ft 365 kts 248°
2026-05-04 03:12 -24.77692 -47.98880 34220 ft 370 kts 248°
2026-05-04 03:12 -24.78827 -48.01397 33038 ft 376 kts 248°
2026-05-04 03:12 -24.79937 -48.03862 31936 ft 381 kts 247°
2026-05-04 03:12 -24.81110 -48.06462 30850 ft 383 kts 247°
2026-05-04 03:13 -24.82287 -48.09070 29760 ft 385 kts 247°
2026-05-04 03:13 -24.83479 -48.11715 28571 ft 388 kts 247°
2026-05-04 03:13 -24.84666 -48.14354 27186 ft 396 kts 247°
2026-05-04 03:13 -24.85716 -48.16686 26498 ft 387 kts 247°
2026-05-04 03:14 -24.86559 -48.18554 26311 ft 373 kts 246°
2026-05-04 03:14 -24.87679 -48.21029 26069 ft 354 kts 247°
2026-05-04 03:14 -24.88760 -48.23423 25783 ft 344 kts 247°
2026-05-04 03:14 -24.89818 -48.25776 25364 ft 339 kts 246°
2026-05-04 03:15 -24.90854 -48.28088 24902 ft 335 kts 247°
2026-05-04 03:15 -24.91884 -48.30392 24434 ft 332 kts 247°
2026-05-04 03:15 -24.92893 -48.32652 23974 ft 329 kts 247°
2026-05-04 03:15 -24.93902 -48.34909 23508 ft 327 kts 246°
2026-05-04 03:16 -24.94897 -48.37139 23055 ft 324 kts 246°
2026-05-04 03:16 -24.95887 -48.39359 22592 ft 322 kts 246°
2026-05-04 03:16 -24.96853 -48.41530 22147 ft 319 kts 247°
2026-05-04 03:16 -24.97834 -48.43739 21695 ft 316 kts 247°
2026-05-04 03:17 -24.98795 -48.45902 21252 ft 314 kts 247°
2026-05-04 03:17 -24.99741 -48.48027 20821 ft 311 kts 247°
2026-05-04 03:17 -25.00692 -48.50168 20388 ft 309 kts 247°
2026-05-04 03:17 -25.01637 -48.52288 19953 ft 306 kts 247°
2026-05-04 03:18 -25.02592 -48.54432 19515 ft 303 kts 247°
2026-05-04 03:18 -25.03539 -48.56555 19081 ft 301 kts 247°
2026-05-04 03:18 -25.04461 -48.58622 18661 ft 298 kts 247°
2026-05-04 03:18 -25.05364 -48.60648 18254 ft 295 kts 247°
2026-05-04 03:19 -25.06258 -48.62656 17844 ft 293 kts 247°
2026-05-04 03:19 -25.07154 -48.64668 17447 ft 290 kts 246°
2026-05-04 03:19 -25.08051 -48.66680 17044 ft 288 kts 246°
2026-05-04 03:19 -25.08923 -48.68633 16647 ft 287 kts 246°
2026-05-04 03:20 -25.09816 -48.70638 16246 ft 285 kts 246°
2026-05-04 03:20 -25.10686 -48.72595 15849 ft 283 kts 246°
2026-05-04 03:20 -25.11552 -48.74544 15456 ft 281 kts 246°
2026-05-04 03:20 -25.12412 -48.76481 15074 ft 279 kts 246°
2026-05-04 03:21 -25.13263 -48.78405 14684 ft 278 kts 246°
2026-05-04 03:21 -25.14105 -48.80312 14297 ft 277 kts 245°
2026-05-04 03:21 -25.14951 -48.82225 13923 ft 275 kts 245°
2026-05-04 03:21 -25.15789 -48.84120 13546 ft 273 kts 245°
2026-05-04 03:22 -25.16614 -48.85990 13174 ft 272 kts 245°
2026-05-04 03:22 -25.17438 -48.87859 12799 ft 271 kts 245°
2026-05-04 03:22 -25.18256 -48.89713 12431 ft 269 kts 245°
2026-05-04 03:22 -25.19079 -48.91589 12048 ft 269 kts 245°
2026-05-04 03:23 -25.19885 -48.93422 11681 ft 268 kts 245°
2026-05-04 03:23 -25.20706 -48.95272 11312 ft 267 kts 245°
2026-05-04 03:23 -25.21524 -48.97118 10950 ft 271 kts 245°
2026-05-04 03:23 -25.22363 -48.99024 10566 ft 278 kts 246°
2026-05-04 03:24 -25.23192 -49.00930 10221 ft 276 kts 246°
2026-05-04 03:24 -25.24011 -49.02825 10044 ft 267 kts 246°
2026-05-04 03:24 -25.24805 -49.04678 9679 ft 266 kts 246°
2026-05-04 03:24 -25.25582 -49.06482 9503 ft 257 kts 246°
2026-05-04 03:25 -25.26353 -49.08246 9430 ft 248 kts 246°
2026-05-04 03:25 -25.27124 -49.09997 9371 ft 262 kts 246°
2026-05-04 03:25 -25.27936 -49.11849 9223 ft 268 kts 246°
2026-05-04 03:25 -25.28741 -49.13685 8878 ft 268 kts 246°
2026-05-04 03:26 -25.29566 -49.15560 8514 ft 267 kts 246°
2026-05-04 03:26 -25.30384 -49.17389 8190 ft 265 kts 245°
2026-05-04 03:26 -25.31185 -49.19175 7956 ft 258 kts 245°
2026-05-04 03:26 -25.31960 -49.20915 7820 ft 243 kts 245°
2026-05-04 03:27 -25.32676 -49.22539 7704 ft 224 kts 246°
2026-05-04 03:27 -25.33412 -49.23989 7560 ft 211 kts 236°
2026-05-04 03:27 -25.34405 -49.25155 7487 ft 207 kts 224°
2026-05-04 03:27 -25.35492 -49.26247 7493 ft 209 kts 225°
2026-05-04 03:28 -25.36545 -49.27349 7491 ft 208 kts 226°
2026-05-04 03:28 -25.37608 -49.28460 7490 ft 208 kts 225°
2026-05-04 03:28 -25.38706 -49.29489 7492 ft 204 kts 215°
2026-05-04 03:28 -25.39999 -49.30013 7366 ft 195 kts 185°
2026-05-04 03:29 -25.41325 -49.29796 7115 ft 192 kts 160°
2026-05-04 03:29 -25.42476 -49.29039 6780 ft 193 kts 138°
2026-05-04 03:29 -25.43429 -49.28016 6487 ft 190 kts 133°
2026-05-04 03:29 -25.44309 -49.27057 6240 ft 177 kts 134°
2026-05-04 03:30 -25.44939 -49.26369 5954 ft 175 kts 133°
2026-05-04 03:30 -25.45790 -49.25422 5577 ft 170 kts 133°
2026-05-04 03:30 -25.46602 -49.24514 5220 ft 164 kts 133°
2026-05-04 03:30 -25.47391 -49.23643 4874 ft 157 kts 133°
2026-05-04 03:31 -25.48163 -49.22790 4572 ft 154 kts 132°
2026-05-04 03:31 -25.48909 -49.21945 4560 ft 154 kts 133°
2026-05-04 03:31 -25.49658 -49.21124 4309 ft 149 kts 133°
2026-05-04 03:31 -25.50386 -49.20307 3866 ft 151 kts 131°
2026-05-04 03:32 -25.51134 -49.19480 3421 ft 152 kts 133°
2026-05-04 03:32 -25.51885 -49.18666 3166 ft 150 kts 132°
2026-05-04 03:32 -25.52615 -49.17856 2996 ft 143 kts 132°
2026-05-04 03:32 -25.53120 -49.17269 2996 ft 68 kts 134°
2026-05-04 03:33 -25.53346 -49.17016 2996 ft 36 kts 132°
2026-05-04 03:33 -25.53489 -49.16855 2996 ft 20 kts 135°
2026-05-04 03:33 -25.53591 -49.16759 2996 ft 12 kts 180°
2026-05-04 03:33 -25.53625 -49.16831 2996 ft 11 kts 271°
2026-05-04 03:34 -25.53618 -49.16922 2996 ft 11 kts 292°
2026-05-04 03:34 -25.53572 -49.16989 2996 ft 10 kts 316°
2026-05-04 03:34 -25.53520 -49.17047 2996 ft 10 kts 314°
2026-05-04 03:34 -25.53483 -49.17097 2996 ft 6 kts 275°
2026-05-04 03:35 -25.53509 -49.17145 2996 ft 8 kts 241°
2026-05-04 03:35 -25.53500 -49.17196 2996 ft 4 kts 274°
2026-05-04 03:35 -25.53517 -49.17226 2996 ft 4 kts 228°
2026-05-04 03:35 -25.53534 -49.17245 2996 ft 2 kts 225°
2026-05-04 03:36 -25.53538 -49.17250 2996 ft 0 kts 225°